This demonstration page uses our WeatherBlox Daily Observations layout. Learn more.

Left ArrowRight Arrow

53.62937, 11.41316

Hourly Observations for May 1, 2019

Temp ( °F °C ) Dew Point ( °F °C ) Humidity (%) Winds ( mph kmh ) Pressure ( in mb ) Visibility ( mi km ) Precip ( " mm )
6:20 am 06:20 Cloudy 46 8 43 6 87 87 W 8 13 29.97 1015 4 6 N/A
6:50 am 06:50 Cloudy 46 8 43 6 87 87 W 7 11 29.97 1015 4 6 N/A
7:20 am 07:20 Cloudy 48 9 43 6 82 82 W 8 13 29.97 1015 4 6 N/A
7:50 am 07:50 Cloudy 48 9 45 7 87 87 W 8 13 29.97 1015 4 6 N/A
8:20 am 08:20 Cloudy 48 9 45 7 87 87 W 8 13 29.97 1015 4 6 N/A
8:50 am 08:50 Mostly Cloudy 48 9 45 7 87 87 W 9 15 29.97 1015 4 7 N/A
9:20 am 09:20 Mostly Cloudy 48 9 45 7 87 87 W 9 15 29.97 1015 5 8 N/A
9:50 am 09:50 Mostly Cloudy 48 9 45 7 87 87 W 9 15 29.94 1014 30 48 N/A
10:20 am 10:20 Mostly Cloudy 50 10 45 7 82 82 W 9 15 29.94 1014 30 48 N/A
10:50 am 10:50 Mostly Cloudy 48 9 45 7 87 87 W 10 17 29.97 1015 30 48 N/A
11:20 am 11:20 Cloudy 48 9 45 7 87 87 W 9 15 29.94 1014 30 48 N/A
11:50 am 11:50 Mostly Cloudy 50 10 45 7 82 82 W 12 19 29.94 1014 30 48 N/A
12:20 pm 12:20 Mostly Cloudy 50 10 45 7 82 82 W 13 20 29.94 1014 30 48 N/A
12:50 pm 12:50 Mostly Cloudy 50 10 45 7 82 82 W 12 19 29.94 1014 30 48 N/A
1:20 pm 13:20 Mostly Cloudy 52 11 45 7 77 77 W 12 19 29.94 1014 30 48 N/A
1:50 pm 13:50 Mostly Cloudy 52 11 45 7 77 77 W 9 15 29.91 1013 30 48 N/A
2:20 pm 14:20 Mostly Cloudy 54 12 45 7 72 72 W 12 19 29.91 1013 30 48 N/A
2:50 pm 14:50 Mostly Cloudy 52 11 45 7 77 77 W 13 20 29.91 1013 30 48 N/A
3:20 pm 15:20 Mostly Cloudy 52 11 45 7 77 77 W 12 19 29.91 1013 30 48 N/A
3:50 pm 15:50 Mostly Cloudy 50 10 45 7 82 82 W 13 20 29.91 1013 30 48 N/A
4:20 pm 16:20 Mostly Cloudy 52 11 45 7 77 77 W 9 15 29.91 1013 30 48 N/A
4:50 pm 16:50 Mostly Cloudy 50 10 43 6 76 76 W 12 19 29.91 1013 30 48 N/A
5:20 pm 17:20 Mostly Cloudy 52 11 43 6 72 72 W 12 19 29.89 1012 30 48 N/A
5:50 pm 17:50 Mostly Cloudy 52 11 43 6 72 72 W 8 13 29.89 1012 30 48 N/A
6:20 pm 18:20 Mostly Cloudy 50 10 43 6 76 76 W 13 20 29.89 1012 30 48 N/A
6:50 pm 18:50 Mostly Cloudy 50 10 41 5 71 71 W 10 17 29.89 1012 30 48 N/A
7:20 pm 19:20 Mostly Cloudy 50 10 41 5 71 71 W 13 20 29.89 1012 30 48 N/A
7:50 pm 19:50 Mostly Cloudy 48 9 41 5 76 76 W 10 17 29.89 1012 30 48 N/A
8:20 pm 20:20 Mostly Cloudy 48 9 41 5 76 76 W 9 15 29.86 1011 30 48 N/A
8:50 pm 20:50 Mostly Cloudy 48 9 41 5 76 76 W 12 19 29.86 1011 30 48 N/A

Powered by AerisWeather